Temp
85 85 85 85 86 86 86 86 86 86 85 88 87 87 86 87 88 88 89 88 87 87 87 86 87 86 87 86 86 86 84 84 85 84 83 82 81 82 83 82 82 82
85 85 85 86 85 86 86 87 86 86 86 86 87 87 87 88 89 89 88 88 87 88 87 88 87 86 86 86 85 85 83 84 84 86 83 82 82 82 83 83 83 82
86 86 86 86 87 87 90 89 88 88 88 89 89 88 88 89 89 88 88 88 88 89 87 87 87 86 86 86 85 85 84 83 83 87 83 82 83 81 82 84 82 83
85 86 87 87 88 88 88 88 88 87 89 88 88 90 90 91 89 89 88 88 87 87 88 88 87 88 87 86 85 85 85 84 84 85 84 83 83 83 83 82 83 83
86 86 87 87 88 87 87 87 89 89 89 89 90 89 88 87 88 89 88 88 87 88 87 87 87 87 86 86 85 84 85 84 85 84 83 82 82 83 84 82 81 82
86 86 86 87 87 87 88 88 88 90 90 91 89 91 90 89 89 89 89 89 90 90 89 89 88 88 88 86 85 84 85 85 85 84 83 83 83 84 85 83 81 81
86 86 87 88 88 88 88 88 88 88 90 90 89 89 90 90 89 89 89 89 90 88 90 87 86 87 87 86 85 84 84 84 85 84 83 83 83 83 84 83 81 81
87 88 88 88 88 88 88 88 88 88 89 89 90 89 90 91 89 91 89 89 90 88 87 88 87 86 88 86 85 84 84 86 85 84 83 83 83 82 82 84 82 80
87 88 88 88 89 89 90 91 90 89 89 89 90 92 90 90 90 90 88 88 88 87 87 87 86 87 87 86 85 84 84 85 86 85 83 83 83 82 83 83 83 81
87 88 89 89 89 90 91 92 92 91 90 90 91 92 91 89 90 90 88 87 88 87 87 87 87 87 87 87 86 85 84 84 85 85 85 84 84 84 84 83 83 82
88 89 89 89 90 91 91 93 93 93 92 91 91 92 93 90 89 89 88 87 88 88 87 87 87 88 87 88 87 87 86 85 85 85 85 84 84 84 84 83 83 83
87 88 88 89 90 92 92 93 94 93 93 92 92 92 92 93 90 90 89 88 88 88 88 87 87 87 86 87 89 88 86 87 86 85 86 85 85 85 85 84 84 83
88 88 89 91 90 90 92 93 94 95 95 94 93 92 92 93 93 90 89 89 88 89 89 88 87 88 86 86 87 87 86 86 87 86 86 86 86 86 87 86 86 85
88 88 89 89 90 89 90 92 94 93 92 93 92 92 93 93 94 92 91 90 90 89 88 88 87 87 87 86 87 87 87 86 86 86 87 86 86 87 87 87 87 87
88 88 89 89 89 88 89 90 91 91 91 92 92 93 93 94 94 95 91 89 90 89 88 89 88 88 88 87 86 86 87 87 86 86 86 86 86 88 88 87 88 88
87 88 88 88 88 88 88 89 91 91 93 92 92 93 92 91 91 92 93 91 89 88 88 88 88 88 83 75 77 86 86 87 87 86 86 86 85 85 87 88 89 89
87 87 87 87 87 88 88 89 89 91 90 89 90 90 91 89 90 91 93 93 91 90 88 88 88 88 74 69 71 74 84 86 86 85 85 85 86 85 85 87 88 88
88 87 87 87 87 87 88 88 89 89 88 88 89 90 89 91 91 90 90 92 92 91 90 89 89 79 70 69 70 70 74 86 87 86 86 86 87 86 86 86 87 88
88 87 87 87 87 87 88 88 87 88 88 89 90 90 90 88 88 90 89 90 91 89 90 90 90 77 68 67 68 68 69 78 88 87 87 87 86 87 86 85 85 86
88 88 87 87 87 87 87 87 88 87 90 92 92 90 88 89 90 89 89 88 89 89 88 90 89 77 66 65 66 66 67 72 87 88 87 88 87 87 87 86 86 85
88 88 87 87 87 87 87 87 87 87 88 90 93 91 89 87 89 89 89 89 91 92 90 91 91 73 65 63 63 64 65 67 84 88 88 87 87 87 86 86 86 87
89 88 87 87 87 87 87 87 87 87 87 88 90 92 91 91 90 91 90 90 90 91 91 90 93 71 64 63 63 62 64 72 80 85 86 86 86 86 87 86 86 86
90 88 87 87 88 87 87 87 87 87 87 88 88 90 91 90 90 91 90 91 91 90 89 89 92 75 61 61 61 61 63 75 78 82 84 85 85 86 87 87 87 87
89 89 88 88 87 87 87 88 89 89 89 88 88 89 91 92 92 90 90 90 91 90 91 90 90 79 59 59 59 60 65 76 79 81 82 83 84 85 86 86 86 79
90 89 89 89 88 88 89 88 88 88 89 89 90 90 90 90 90 90 90 90 92 92 82 87 91 83 59 58 57 58 65 78 80 81 81 82 82 83 84 85 85 81
90 88 88 89 88 88 89 88 88 90 90 90 90 90 90 91 91 90 89 90 92 92 93 91 90 91 74 56 56 56 59 76 81 81 81 81 82 82 82 83 84 85
MSLP
1010.20 1010.44 1010.84 1011.08 1011.20 1011.28 1011.44 1011.84 1012.00 1012.32 1012.48 1012.56 1012.92 1013.04 1013.16 1013.20 1013.16 1013.40 1013.56 1013.80 1014.08 1014.32 1014.44 1014.60 1014.76 1014.96 1015.12 1015.28 1015.44 1015.68 1016.12 1016.36 1016.44 1016.60 1016.92 1017.08 1017.36 1017.56 1017.84 1017.88 1017.88 1017.96
1009.76 1010.00 1010.32 1010.60 1010.88 1010.92 1011.00 1011.12 1011.52 1011.84 1012.12 1012.20 1012.28 1012.48 1012.60 1012.76 1012.92 1013.00 1013.28 1013.56 1013.84 1014.08 1014.16 1014.36 1014.52 1014.72 1014.96 1015.16 1015.36 1015.64 1016.00 1016.20 1016.44 1016.24 1016.76 1017.04 1017.16 1017.32 1017.56 1017.60 1017.72 1017.68
1009.40 1009.72 1010.04 1010.36 1010.48 1010.60 1010.68 1010.76 1011.04 1011.36 1011.64 1011.72 1011.76 1011.92 1012.24 1012.28 1012.60 1012.68 1012.84 1013.12 1013.52 1013.76 1014.00 1014.12 1014.36 1014.52 1014.72 1014.92 1015.12 1015.48 1015.76 1016.00 1016.28 1016.04 1016.40 1016.80 1016.84 1017.16 1017.28 1017.28 1017.44 1017.56
1009.00 1009.12 1009.36 1009.64 1009.84 1010.16 1010.28 1010.56 1010.72 1010.92 1011.08 1011.44 1011.56 1011.48 1011.68 1011.84 1012.12 1012.44 1012.64 1012.76 1013.16 1013.48 1013.64 1013.88 1014.12 1014.28 1014.48 1014.68 1014.96 1015.28 1015.44 1015.60 1015.72 1015.80 1016.16 1016.36 1016.56 1016.76 1017.00 1017.08 1017.24 1017.36
1008.44 1008.68 1008.88 1009.12 1009.28 1009.52 1009.84 1010.20 1010.36 1010.52 1010.76 1010.88 1011.04 1011.16 1011.40 1011.60 1011.88 1012.16 1012.44 1012.68 1012.80 1013.16 1013.40 1013.68 1013.84 1014.08 1014.24 1014.48 1014.68 1015.16 1015.20 1015.44 1015.44 1015.64 1016.00 1016.32 1016.32 1016.52 1016.64 1016.88 1017.16 1017.32
1007.84 1008.08 1008.32 1008.64 1008.88 1009.20 1009.52 1009.76 1009.88 1010.12 1010.40 1010.64 1010.76 1010.80 1011.08 1011.28 1011.56 1011.80 1012.12 1012.48 1012.60 1012.76 1013.08 1013.32 1013.64 1013.76 1013.96 1014.24 1014.48 1014.80 1014.92 1015.20 1015.24 1015.44 1015.80 1016.04 1016.16 1016.12 1016.28 1016.52 1016.88 1017.16
1007.48 1007.72 1008.04 1008.16 1008.52 1008.76 1009.12 1009.32 1009.48 1009.68 1009.88 1010.08 1010.28 1010.64 1010.72 1011.08 1011.32 1011.44 1011.68 1012.00 1012.28 1012.48 1012.68 1013.00 1013.32 1013.52 1013.60 1013.92 1014.28 1014.60 1014.64 1014.76 1014.88 1015.16 1015.56 1015.72 1015.80 1016.04 1016.04 1016.20 1016.52 1016.80
1006.84 1007.08 1007.40 1007.72 1008.16 1008.36 1008.68 1008.84 1009.08 1009.36 1009.44 1009.76 1010.16 1010.24 1010.32 1010.64 1010.92 1011.04 1011.24 1011.52 1011.92 1012.24 1012.40 1012.52 1012.80 1013.12 1013.24 1013.56 1014.04 1014.36 1014.52 1014.44 1014.64 1014.88 1015.24 1015.44 1015.48 1015.80 1015.84 1015.88 1016.08 1016.48
1006.12 1006.64 1006.96 1007.40 1007.80 1008.00 1008.28 1008.40 1008.60 1008.88 1009.04 1009.52 1009.72 1009.84 1009.88 1010.12 1010.40 1010.64 1010.96 1011.20 1011.52 1011.84 1012.12 1012.28 1012.44 1012.72 1012.84 1013.16 1013.56 1013.92 1014.20 1014.24 1014.24 1014.48 1014.84 1015.16 1015.36 1015.44 1015.48 1015.52 1015.84 1016.08
1005.80 1006.08 1006.52 1006.88 1007.40 1007.48 1007.76 1007.84 1008.04 1008.40 1008.60 1009.00 1009.20 1009.32 1009.68 1009.80 1009.92 1010.20 1010.56 1010.92 1011.24 1011.48 1011.72 1011.96 1012.12 1012.28 1012.48 1012.64 1013.00 1013.36 1013.72 1013.96 1013.92 1014.04 1014.28 1014.52 1014.80 1014.92 1015.00 1015.16 1015.40 1015.68
1005.32 1005.56 1006.04 1006.36 1006.64 1006.84 1007.12 1007.28 1007.52 1007.80 1008.04 1008.44 1008.76 1009.08 1009.16 1009.44 1009.72 1009.80 1010.20 1010.60 1010.96 1011.12 1011.32 1011.52 1011.68 1011.84 1012.12 1012.28 1012.44 1012.68 1013.04 1013.36 1013.52 1013.64 1013.80 1014.00 1014.16 1014.32 1014.40 1014.60 1014.84 1015.04
1004.88 1005.12 1005.48 1005.72 1006.00 1006.24 1006.48 1006.72 1006.92 1007.20 1007.56 1007.84 1008.16 1008.64 1008.72 1008.84 1009.28 1009.52 1009.76 1010.12 1010.32 1010.52 1010.72 1010.92 1011.08 1011.28 1011.52 1011.76 1011.92 1012.16 1012.48 1012.76 1013.00 1013.20 1013.28 1013.44 1013.60 1013.76 1013.88 1013.96 1014.20 1014.36
1004.36 1004.60 1004.84 1005.16 1005.40 1005.68 1005.88 1006.16 1006.44 1006.64 1006.92 1007.32 1007.52 1007.92 1008.28 1008.48 1008.60 1009.04 1009.20 1009.48 1009.76 1009.96 1010.20 1010.40 1010.64 1010.76 1011.04 1011.24 1011.44 1011.68 1012.00 1012.36 1012.60 1012.76 1012.88 1012.96 1013.04 1013.16 1013.28 1013.40 1013.56 1013.72
1003.72 1004.00 1004.32 1004.56 1004.80 1005.12 1005.44 1005.64 1005.84 1006.08 1006.32 1006.52 1006.88 1007.48 1007.76 1007.92 1008.08 1008.40 1008.64 1008.88 1009.16 1009.44 1009.60 1009.80 1010.12 1010.40 1010.60 1010.80 1011.04 1011.28 1011.56 1011.92 1012.12 1012.32 1012.48 1012.56 1012.64 1012.72 1012.80 1012.92 1013.04 1013.12
1003.20 1003.56 1003.80 1004.16 1004.44 1004.80 1005.08 1005.28 1005.44 1005.64 1005.84 1006.12 1006.40 1006.80 1007.04 1007.24 1007.36 1007.60 1008.16 1008.56 1008.68 1008.96 1009.24 1009.44 1009.72 1009.92 1010.04 1010.36 1010.76 1011.00 1011.12 1011.44 1011.68 1011.84 1012.00 1012.24 1012.32 1012.40 1012.44 1012.52 1012.52 1012.56
1002.68 1003.08 1003.48 1003.80 1004.20 1004.48 1004.68 1004.88 1005.08 1005.32 1005.52 1005.84 1006.04 1006.20 1006.48 1006.72 1007.00 1007.20 1007.44 1007.92 1008.40 1008.64 1008.88 1009.08 1009.28 1009.28 1009.40 1009.72 1010.00 1010.36 1010.68 1010.80 1011.04 1011.28 1011.48 1011.68 1011.88 1012.04 1012.08 1012.04 1012.04 1012.04
1002.28 1002.68 1003.04 1003.56 1003.68 1003.96 1004.32 1004.60 1004.84 1004.96 1005.24 1005.52 1005.68 1005.84 1006.04 1006.32 1006.68 1007.00 1007.12 1007.28 1007.76 1008.16 1008.52 1008.64 1008.68 1008.68 1008.96 1009.28 1009.52 1009.72 1009.96 1010.28 1010.56 1010.80 1010.92 1011.16 1011.32 1011.52 1011.68 1011.64 1011.56 1011.52
1001.88 1002.24 1002.76 1003.12 1003.44 1003.80 1003.96 1004.16 1004.44 1004.72 1005.00 1005.16 1005.40 1005.64 1005.80 1005.92 1006.36 1006.60 1006.80 1006.84 1007.08 1007.48 1007.80 1007.96 1008.04 1008.00 1008.36 1008.64 1008.84 1009.04 1009.20 1009.44 1009.76 1010.16 1010.36 1010.56 1010.64 1010.76 1010.88 1011.00 1011.04 1011.04
1001.48 1001.92 1002.32 1002.72 1003.00 1003.20 1003.44 1003.80 1004.20 1004.48 1004.72 1004.92 1005.12 1005.08 1005.40 1005.84 1005.96 1006.20 1006.48 1006.48 1006.60 1006.96 1007.24 1007.28 1007.40 1007.36 1007.80 1008.12 1008.40 1008.64 1008.80 1008.92 1009.08 1009.32 1009.64 1009.80 1009.88 1010.00 1010.12 1010.24 1010.32 1010.48
1001.08 1001.52 1001.96 1002.20 1002.44 1002.80 1003.08 1003.44 1003.80 1004.08 1004.08 1004.20 1004.48 1004.80 1005.20 1005.44 1005.60 1005.84 1005.96 1006.20 1006.28 1006.40 1006.52 1006.52 1006.72 1006.84 1007.36 1007.72 1007.96 1008.24 1008.44 1008.68 1008.52 1008.68 1008.80 1008.96 1009.12 1009.28 1009.36 1009.48 1009.60 1009.84
1000.68 1001.12 1001.60 1001.92 1002.12 1002.40 1002.72 1003.00 1003.24 1003.52 1003.84 1003.96 1004.12 1004.40 1004.76 1005.04 1005.20 1005.44 1005.48 1005.56 1005.68 1005.76 1006.00 1006.12 1005.96 1006.12 1006.64 1007.12 1007.48 1007.72 1007.96 1008.28 1008.12 1008.08 1008.20 1008.32 1008.36 1008.44 1008.60 1008.72 1008.88 1009.08
1000.32 1000.88 1001.28 1001.64 1001.92 1002.16 1002.48 1002.72 1002.92 1003.20 1003.52 1003.52 1003.68 1003.80 1003.92 1004.24 1004.52 1004.64 1005.00 1005.16 1005.16 1005.32 1005.60 1005.72 1005.36 1005.56 1006.00 1006.40 1006.76 1007.20 1007.56 1008.04 1007.96 1007.96 1008.00 1007.96 1007.92 1007.84 1007.96 1008.04 1008.20 1008.40
999.88 1000.44 1000.96 1001.32 1001.56 1001.96 1002.20 1002.36 1002.64 1002.92 1003.08 1003.08 1003.64 1003.64 1003.84 1004.00 1004.12 1004.20 1004.28 1004.56 1004.76 1004.92 1005.20 1005.20 1005.12 1005.12 1005.56 1005.88 1006.28 1006.64 1007.32 1007.60 1007.68 1007.76 1007.80 1007.76 1007.56 1007.40 1007.44 1007.48 1007.60 1007.76
999.40 999.96 1000.60 1000.92 1001.20 1001.60 1001.72 1001.92 1002.08 1002.32 1002.68 1002.76 1003.28 1003.48 1003.64 1003.60 1003.68 1003.92 1003.96 1004.08 1004.32 1004.48 1004.48 1004.92 1004.88 1004.72 1005.16 1005.56 1005.88 1006.32 1006.68 1007.08 1007.32 1007.64 1007.68 1007.56 1007.36 1007.16 1007.16 1007.24 1007.12 1007.20
998.96 999.48 1000.04 1000.44 1000.84 1001.16 1001.32 1001.72 1001.92 1002.12 1002.24 1002.48 1002.76 1003.04 1003.20 1003.16 1003.32 1003.64 1003.76 1003.80 1003.80 1003.96 1004.08 1004.44 1004.44 1004.44 1004.80 1005.28 1005.80 1006.16 1006.56 1006.60 1006.88 1007.32 1007.60 1007.28 1007.20 1007.36 1007.16 1007.08 1006.88 1006.76
998.60 999.12 999.56 999.96 1000.36 1000.68 1000.84 1001.16 1001.40 1001.76 1002.04 1002.36 1002.52 1002.68 1003.00 1003.04 1003.04 1003.20 1003.56 1003.60 1003.52 1003.68 1003.76 1003.88 1004.16 1004.16 1004.40 1004.92 1005.40 1005.84 1006.24 1006.36 1006.52 1007.04 1007.12 1006.92 1007.04 1007.20 1007.36 1007.04 1006.76 1006.64
Wind_Speed
13 11 11 11 10 9 8 10 9 9 8 8 8 8 9 8 8 9 9 9 9 8 7 8 7 7 7 6 5 5 7 7 6 6 6 5 5 5 5 5 4 4
15 13 11 11 9 9 8 9 10 9 9 8 8 8 8 8 9 8 9 9 10 9 8 8 8 7 7 6 7 6 7 7 6 7 7 7 6 6 6 6 6 4
14 14 14 14 13 13 14 10 10 10 9 10 9 8 9 8 9 9 8 10 10 10 9 8 9 8 8 8 8 7 7 8 8 7 8 8 7 6 6 6 5 6
16 16 15 16 14 13 12 10 10 10 9 10 10 9 9 9 9 10 8 9 10 10 10 9 9 9 9 9 8 8 8 7 8 7 7 8 7 6 6 5 6 6
18 16 14 14 13 12 12 12 13 12 12 10 10 10 8 7 10 10 10 9 8 10 10 10 9 10 9 9 9 8 8 8 8 8 6 7 8 7 7 7 6 7
16 15 15 14 13 13 13 13 12 12 12 12 11 10 10 9 8 10 11 11 10 10 11 12 11 10 10 9 9 9 8 8 9 9 8 7 8 8 7 7 8 8
18 17 17 15 15 14 13 13 12 11 11 11 9 9 10 11 10 9 10 11 12 10 11 11 11 10 10 9 9 9 8 8 8 10 10 8 7 9 9 7 8 8
19 18 17 15 16 15 14 13 13 12 11 10 11 10 10 11 12 11 9 11 12 11 11 10 11 11 11 10 10 10 10 8 9 10 11 10 8 9 9 8 7 9
19 18 17 17 18 16 18 16 14 12 11 11 11 11 11 10 11 12 10 10 11 11 11 10 10 12 11 11 11 11 11 11 10 10 11 11 11 10 10 9 9 9
18 17 20 20 20 17 18 18 16 14 13 13 12 11 11 11 10 11 11 11 11 11 11 11 11 11 12 12 12 12 12 11 10 10 10 12 12 11 11 11 11 10
19 19 20 20 20 18 19 19 18 16 14 15 14 14 13 11 11 10 11 12 12 12 12 12 12 11 12 13 11 12 13 12 11 10 11 12 12 12 12 12 12 12
19 18 19 21 20 19 19 18 17 15 15 15 15 16 14 13 13 12 11 12 13 13 12 12 12 12 12 13 14 13 13 13 12 11 11 12 12 12 12 12 12 13
19 18 17 19 17 16 15 16 17 17 17 16 16 16 16 15 15 14 12 12 13 13 13 13 13 13 12 13 13 13 13 13 13 13 12 11 12 13 14 14 13 13
17 17 17 16 15 14 14 15 16 15 15 14 14 16 16 16 16 15 14 13 13 14 13 12 13 13 13 12 12 12 12 12 13 12 13 12 12 13 14 14 14 14
15 15 14 14 15 15 15 15 14 14 13 13 12 14 14 16 15 15 14 14 14 13 13 12 13 13 12 12 12 13 12 13 14 14 13 12 12 13 14 14 14 14
15 14 14 14 15 15 15 15 13 13 13 14 13 13 13 13 13 13 14 15 14 14 13 12 12 11 13 18 16 13 13 12 12 13 13 12 12 13 13 14 15 14
15 15 14 15 15 14 14 14 14 13 12 13 13 13 13 12 12 13 13 13 15 15 15 13 12 11 18 19 20 21 15 13 13 12 13 13 13 12 13 14 14 14
14 15 15 15 14 14 14 14 14 13 12 12 13 13 12 11 13 14 12 12 12 15 16 14 14 16 20 21 22 23 21 15 14 12 12 14 14 14 13 13 13 14
14 15 15 15 15 15 14 13 14 14 14 13 14 13 12 12 12 13 13 13 12 13 16 15 14 18 19 22 23 23 23 20 13 14 14 14 15 15 15 13 13 13
14 14 15 15 14 14 14 14 14 15 15 14 12 12 13 13 13 13 13 13 13 13 12 14 15 16 20 22 23 24 23 21 15 15 15 15 15 15 15 15 15 14
15 14 14 14 14 14 14 15 15 14 14 13 13 14 14 14 14 14 13 14 15 15 12 12 13 19 21 23 23 25 25 19 16 16 14 14 14 15 15 15 14 14
14 14 13 13 13 14 14 15 14 13 14 13 12 12 12 11 12 13 14 14 14 15 15 15 13 18 21 23 25 24 25 15 16 17 15 13 14 15 14 13 14 14
13 14 14 14 13 14 15 15 14 13 13 11 11 11 11 13 13 14 12 13 14 14 15 14 14 15 20 23 24 25 18 9 11 16 15 15 14 13 13 13 13 13
14 14 14 14 13 15 15 14 13 11 12 11 13 13 13 13 12 11 11 12 14 15 14 13 13 14 18 20 23 23 21 10 13 16 15 15 15 13 11 10 13 18
13 13 13 14 14 13 13 12 12 12 10 9 11 11 12 9 9 10 11 11 14 14 15 15 14 13 15 18 20 21 19 13 15 13 16 16 14 13 12 11 11 13
12 13 13 13 14 13 11 11 10 11 12 12 11 11 11 11 10 10 11 11 12 13 14 14 14 13 11 18 19 20 22 15 13 13 15 16 13 12 11 12 13 11
Wind_Direction
191 189 194 197 197 196 190 182 186 189 192 192 190 189 194 188 194 191 192 182 187 196 190 188 190 187 182 184 191 162 168 188 183 170 179 187 179 191 205 210 224 219
191 190 191 194 197 196 197 186 184 188 189 195 192 188 190 189 193 194 186 182 184 193 192 190 189 189 185 184 180 176 172 186 193 178 179 188 187 190 208 204 210 217
191 190 191 194 197 196 199 190 186 188 191 196 195 188 186 191 189 197 189 183 181 191 192 192 188 189 189 186 180 182 187 185 191 196 173 189 187 185 199 208 203 210
192 193 194 196 197 195 195 193 191 191 195 193 200 196 187 190 191 189 197 187 180 185 190 192 189 190 191 189 182 187 192 191 187 198 187 180 188 189 191 203 204 203
191 193 194 195 197 194 192 196 196 194 197 197 194 197 198 191 182 186 189 197 187 182 184 190 190 191 189 192 185 189 194 190 190 195 198 180 184 190 196 193 208 211
191 192 193 194 193 191 192 197 197 196 198 200 196 195 198 198 189 186 185 193 196 191 188 191 192 193 190 192 189 193 195 192 194 192 203 191 185 187 203 191 198 210
189 191 193 193 194 194 194 195 196 198 196 201 194 198 195 197 200 193 185 189 198 200 199 192 192 194 191 190 195 194 202 198 194 190 197 202 189 189 197 201 194 202
190 191 192 192 195 194 197 194 194 197 198 194 197 198 197 197 196 200 193 187 195 196 201 196 188 192 191 190 194 197 202 204 202 191 195 202 199 196 193 202 195 196
188 190 190 193 196 198 199 199 196 194 195 197 199 200 198 202 194 196 197 194 193 194 195 200 192 190 193 192 193 198 201 205 204 199 195 199 203 202 198 197 200 197
186 188 191 193 196 196 199 199 199 197 192 199 202 205 197 198 201 194 194 197 198 195 194 198 198 192 194 196 194 196 201 205 204 203 199 199 205 203 200 199 201 200
188 188 190 192 194 196 198 198 198 198 194 198 201 206 204 192 199 199 193 195 199 200 197 196 198 197 195 199 198 196 200 204 206 205 203 200 205 207 202 202 202 204
188 191 192 193 194 196 197 199 199 197 196 194 198 202 204 200 193 198 198 195 198 200 201 199 196 198 198 200 202 199 198 203 206 208 207 203 205 207 205 204 205 204
190 192 192 195 192 195 196 198 199 200 200 198 196 201 202 204 198 195 198 199 198 200 202 201 200 200 201 201 203 202 199 200 205 206 210 208 208 208 209 209 209 207
192 192 193 195 193 191 195 198 200 199 200 197 191 198 203 205 205 195 194 199 199 201 202 202 201 202 202 203 203 204 202 201 204 207 209 212 211 211 212 214 212 211
188 191 194 193 193 191 195 197 199 199 198 197 194 195 202 207 208 204 194 197 200 200 201 203 204 204 203 202 202 203 206 205 203 208 210 210 212 214 214 216 217 216
185 188 191 193 195 194 195 197 198 198 198 198 200 198 196 201 207 210 201 193 195 197 200 204 207 207 203 198 197 202 206 209 206 208 211 212 210 213 216 216 219 220
184 188 188 193 196 195 193 196 199 199 200 200 201 202 201 195 200 206 212 199 194 196 199 204 207 208 196 194 196 199 202 207 209 207 209 214 215 213 215 216 218 220
186 185 188 193 193 196 194 195 197 200 202 201 201 202 202 198 197 204 209 212 199 197 202 204 208 206 194 194 196 198 199 204 208 210 208 211 217 217 216 216 216 217
185 186 189 189 192 194 195 192 195 201 204 203 204 202 199 203 202 199 205 211 214 200 203 205 211 204 194 194 197 199 201 203 209 209 211 213 214 216 218 215 215 216
184 188 190 192 190 191 192 194 196 200 202 203 204 199 202 204 205 204 203 207 213 215 208 206 208 201 193 195 198 200 202 204 214 210 213 216 215 215 218 218 215 216
183 186 189 190 189 189 191 195 198 199 200 202 203 203 202 203 205 206 206 206 210 215 220 217 212 196 189 194 198 200 203 203 214 216 217 216 217 217 218 218 219 219
181 185 187 189 189 190 194 198 197 196 198 200 205 206 206 204 207 210 210 210 211 213 219 224 221 195 191 192 196 200 200 199 212 218 222 223 221 221 218 218 219 219
180 184 185 187 188 190 194 197 196 196 198 197 206 209 206 205 207 209 211 212 214 214 219 223 227 204 191 194 196 198 194 198 205 214 223 228 230 224 222 221 220 219
179 182 186 188 190 194 195 196 195 197 199 195 204 208 212 211 210 212 213 215 217 219 216 223 227 212 191 197 197 195 192 190 203 212 222 228 234 234 231 231 226 220
179 182 185 187 191 195 189 188 193 195 196 195 205 209 216 215 208 209 212 215 220 222 221 222 228 220 192 196 197 196 195 203 205 212 222 228 230 235 237 239 239 229
182 182 185 190 191 190 189 190 187 191 195 197 202 207 211 216 216 212 211 214 217 222 226 224 226 228 191 195 193 198 197 200 209 210 222 227 229 235 239 238 240 242